[[{"header":{"parameterUnit":"m.s-1","parameterCategory":1,"la1":30.2991,"la2":30.254,"lo1":-89.0895,"lo2":-89.0444,"dy":0.0017,"dx":0.0017,"nx":28,"ny":28,"refTime":"2025-07-30T21:00:00:Z","depth":0,"parameterNumber":2,"parameterNumberName":"U-component_of_WINDS"},"data":[0,0,0,0,0,0,0,0,0,0,0,0,0,0,0,0,0,0,0,0,0,0,0,0,0,0,0,0,0,0,0,0,0,0,0,0,0,0,0,0,0,0,0,0,0,0,0,0,0,0,0,0,0,0,0,0,0,0,5.0498,5.0499,0,5.0584,5.0585,5.0586,5.0502,5.0499,5.0495,5.0492,5.0582,5.0587,5.0593,0,0,0,0,0,0,0,0,0,0,0,0,0,5.0262,5.0266,5.0498,5.0499,5.05,5.0584,5.0585,5.0586,5.0503,5.0499,5.0495,5.0491,5.058,5.0587,5.0593,0,0,0,0,0,0,0,0,0,0,0,0,0,5.0358,5.0268,5.0498,5.0468,5.0467,5.0583,5.0585,5.0586,5.0503,5.0498,5.0493,5.0489,5.0578,5.0586,5.0594,5.0745,0,0,5.0619,5.0623,0,0,0,0,0,0,0,0,5.0352,5.0366,5.0472,5.0471,5.0469,5.0527,5.0534,5.064,5.0505,5.049,5.0492,5.0486,5.0568,5.0577,5.0604,5.0749,5.0753,5.062,5.0625,5.0629,5.0631,0,0,0,0,0,0,0,5.0346,5.0362,5.0532,5.0473,5.0472,5.0451,5.0459,5.0554,5.0556,5.0491,5.0485,5.0496,5.0566,5.0596,5.0605,5.0754,5.062,5.0627,5.0632,5.0635,5.1024,5.1029,0,0,0,0,0,0,5.0342,5.0357,5.0529,5.0534,5.0397,5.0459,5.0468,5.0514,5.0554,5.0556,5.05,5.0492,5.0584,5.0596,5.0608,5.0784,5.0628,5.0636,5.0641,5.1018,5.1025,5.1031,0,0,0,0,0,0,5.0338,5.0358,5.0526,5.0444,5.0464,5.0469,5.052,5.0518,5.0547,5.0562,5.0562,5.053,5.0581,5.0596,5.071,5.0786,5.064,5.0647,5.1012,5.102,5.1028,5.1139,0,0,0,0,0,0,5.0331,5.0357,5.0414,5.0446,5.0469,5.0627,5.0525,5.0523,5.0562,5.0551,5.059,5.0591,5.0578,5.0699,5.0719,5.0795,5.0654,5.1005,5.1016,5.1025,5.1129,5.115,5.1168,0,0,0,0,0,5.0323,5.0444,5.0418,5.0439,5.054,5.0631,5.0644,5.0626,5.0568,5.0625,5.0634,5.059,5.0775,5.0711,5.0733,5.0813,5.1,5.1013,5.1024,5.112,5.1146,5.1168,0,0,0,0,0,0,5.0421,5.0447,5.0419,5.0553,5.0591,5.0617,5.0689,5.0655,5.071,5.0698,5.0674,5.0683,5.0803,5.082,5.0748,5.0959,5.0878,5.0895,5.0943,5.0968,5.0988,5.098,5.0661,0,0,0,0,0,5.0459,5.053,5.0549,5.0666,5.0686,5.0685,5.0724,5.0706,5.0744,5.076,5.0777,5.0816,5.0882,5.0926,5.0989,5.1131,5.1137,5.1197,5.1217,5.1233,5.1247,5.1321,5.1347,5.107,5.107,5.107,0,0,5.0537,5.0559,5.0606,5.0686,5.0713,5.0787,5.0698,5.0781,5.0835,5.0773,5.088,5.0894,5.0936,5.1064,5.1121,5.1081,5.1325,5.1248,5.1261,5.1267,5.1336,5.1362,5.1385,5.1079,5.1077,5.1076,0,0,5.0715,5.0741,5.0839,5.0868,5.0909,5.0907,5.0931,5.0963,5.0969,5.1077,5.103,5.1095,5.1211,5.1241,5.1272,5.1461,5.1422,5.1483,5.1585,5.1657,5.1679,5.1698,5.1762,5.1786,5.1497,5.1497,5.1498,0,5.0807,5.0916,5.0895,5.098,5.1015,5.0961,5.106,5.1089,5.1149,5.1175,5.1129,5.1271,5.1296,5.1429,5.1475,5.1503,5.1528,5.1477,5.1677,5.1696,5.1714,5.1775,5.18,5.1504,5.1504,5.1503,5.1502,0,5.1025,5.1102,5.1176,5.1234,5.1278,5.137,5.1362,5.141,5.1389,5.1391,5.15,5.1528,5.1593,5.1624,5.1606,5.1754,5.1728,5.1681,5.1599,5.1747,5.1804,5.1828,5.1514,5.1512,5.151,5.1508,0,0,5.1267,5.1311,5.1338,5.1362,5.1404,5.1463,5.1552,5.1615,5.1655,5.1698,5.1771,5.187,5.1825,5.186,5.1845,5.1908,5.2053,5.1853,5.1853,5.1886,5.2215,5.2248,5.2275,5.2028,5.2032,5.2036,5.221,0,5.1445,5.1598,5.1581,5.1727,5.1796,5.1745,5.1822,5.1856,5.1861,5.192,5.1926,5.1994,5.1933,5.1953,5.2014,5.2022,5.2118,5.201,5.2093,5.2097,5.2081,5.2306,5.2341,5.2505,5.2233,5.2237,5.2239,0,5.1672,5.1721,5.1874,5.1902,5.1931,5.2,5.2055,5.2113,5.215,5.2149,5.2187,5.216,5.2248,5.2166,5.2287,5.2214,5.2247,5.2257,5.2262,5.2267,5.2175,5.2314,5.2557,5.258,5.2275,5.2272,5.2269,0,5.1829,5.1935,5.2039,5.2062,5.2098,5.2148,5.2165,5.2197,5.2235,5.2284,5.2308,5.2367,5.2399,5.2445,5.2434,5.2376,5.2556,5.2474,5.2556,5.2556,5.2594,5.2591,5.2843,5.2622,5.2621,5.2621,5.262,0,5.2027,5.2122,5.2109,5.2173,5.2277,5.2256,5.236,5.2371,5.24,5.2464,5.2425,5.2487,5.2469,5.253,5.2522,5.2622,5.2637,5.2638,5.2634,5.264,5.2639,5.2659,5.2646,5.2627,5.2626,5.2624,5.2623,0,5.222,5.2215,5.2325,5.235,5.2358,5.2434,5.2455,5.2514,5.2516,5.2598,5.2616,5.2619,5.2688,5.2682,5.2761,5.2755,5.2877,5.2861,5.2864,5.2859,5.294,5.2932,5.3211,5.3245,5.3005,5.3007,5.3009,0,5.2345,5.2416,5.2448,5.2488,5.2508,5.2574,5.2612,5.2595,5.2636,5.2682,5.2736,5.2801,5.2852,5.2965,5.2974,5.3033,5.3017,5.3111,5.3025,5.3028,5.3014,5.3009,5.3014,5.3126,5.3129,5.3131,5.3133,0,5.2566,5.256,5.2616,5.2672,5.2718,5.2761,5.28,5.2835,5.2822,5.287,5.294,5.2979,5.3058,5.3123,5.3178,5.3196,5.3162,5.316,5.3182,5.3186,5.3183,5.3183,5.2906,5.3153,5.3151,5.315,5.3149,5.3148,5.2727,5.2786,5.2817,5.2881,5.2908,5.2945,5.3001,5.3009,5.3067,5.3128,5.3115,5.3193,5.3226,5.3297,5.3321,5.3381,5.3347,5.3379,5.3386,5.3394,5.3401,5.3177,5.3391,5.3391,5.339,5.339,5.3389,0,5.2943,5.296,5.3019,5.3074,5.3123,5.3087,5.3128,5.3171,5.324,5.3273,5.3324,5.3403,5.3465,5.3478,5.3538,5.3583,5.3569,5.3599,5.3594,5.3598,5.343,5.3404,5.3609,5.3609,5.3609,5.3609,5.3609,5.3609,5.3061,5.3159,5.3157,5.3267,5.3284,5.3359,5.3385,5.3418,5.3444,5.3533,5.3584,5.3593,5.3618,5.3678,5.3733,5.3735,5.3758,5.3794,5.379,5.3632,5.361,5.3589,5.3564,5.3799,5.38,5.3952,5.3953,5.3954]},{"header":{"parameterUnit":"m.s-1","parameterCategory":1,"la1":30.2991,"la2":30.254,"lo1":-89.0895,"lo2":-89.0444,"dy":0.0017,"dx":0.0017,"nx":28,"ny":28,"refTime":"2025-07-30T21:00:00:Z","depth":0,"parameterNumber":3,"parameterNumberName":"V-component_of_WINDS"},"data":[0,0,0,0,0,0,0,0,0,0,0,0,0,0,0,0,0,0,0,0,0,0,0,0,0,0,0,0,0,0,0,0,0,0,0,0,0,0,0,0,0,0,0,0,0,0,0,0,0,0,0,0,0,0,0,0,0,0,2.4041,2.4042,0,2.4168,2.417,2.4171,2.4177,2.4175,2.4174,2.4172,2.4299,2.4304,2.4309,0,0,0,0,0,0,0,0,0,0,0,0,0,2.3798,2.3803,2.4041,2.4043,2.4044,2.4168,2.417,2.4172,2.4177,2.4175,2.4173,2.4171,2.4298,2.4303,2.4309,0,0,0,0,0,0,0,0,0,0,0,0,0,2.3912,2.3804,2.4041,2.4062,2.4065,2.4168,2.417,2.4172,2.4177,2.4175,2.4173,2.4171,2.4296,2.4303,2.431,2.4399,0,0,2.4332,2.4335,0,0,0,0,0,0,0,0,2.3906,2.3921,2.4057,2.4061,2.4064,2.4154,2.4131,2.4248,2.4178,2.4134,2.4172,2.4169,2.4253,2.4263,2.4292,2.4405,2.4411,2.4332,2.4337,2.434,2.4342,0,0,0,0,0,0,0,2.3898,2.3916,2.4091,2.4059,2.4063,2.4063,2.4077,2.4153,2.4204,2.4138,2.4139,2.4154,2.4254,2.4285,2.4295,2.4412,2.4332,2.4339,2.4343,2.4346,2.4603,2.4605,0,0,0,0,0,0,2.3886,2.3909,2.4087,2.4095,2.3978,2.407,2.4085,2.4128,2.4204,2.4213,2.4156,2.4154,2.4274,2.4287,2.4299,2.4408,2.434,2.4347,2.4351,2.4601,2.4604,2.4606,0,0,0,0,0,0,2.3881,2.3902,2.4082,2.4002,2.4025,2.4076,2.4124,2.4131,2.4162,2.4217,2.4226,2.4178,2.4273,2.4289,2.4374,2.4413,2.435,2.4356,2.4598,2.4602,2.4605,2.4627,0,0,0,0,0,0,2.3874,2.39,2.3936,2.4003,2.403,2.4156,2.4126,2.4135,2.4175,2.4174,2.4241,2.4249,2.4272,2.4363,2.4381,2.4421,2.4362,2.4594,2.4599,2.4604,2.4623,2.4631,2.4638,0,0,0,0,0,2.3865,2.3937,2.3938,2.3959,2.4075,2.4158,2.4173,2.4199,2.4178,2.4214,2.4248,2.4247,2.4405,2.4372,2.4392,2.4435,2.4592,2.4598,2.4603,2.462,2.4629,2.4638,0,0,0,0,0,0,2.3872,2.3946,2.3948,2.4044,2.4095,2.4159,2.4205,2.4209,2.4266,2.4262,2.4291,2.4306,2.4389,2.4421,2.4382,2.4524,2.4496,2.4506,2.4501,2.4511,2.4518,2.4509,2.4368,0,0,0,0,0,2.3885,2.3948,2.4008,2.4086,2.4112,2.4154,2.4191,2.4206,2.426,2.4282,2.4323,2.4374,2.4435,2.4475,2.4534,2.4627,2.4641,2.4666,2.4673,2.4679,2.4688,2.4738,2.4749,2.4625,2.4625,2.4625,0,0,2.3912,2.396,2.3998,2.4089,2.413,2.4193,2.4172,2.424,2.4286,2.4291,2.4374,2.4406,2.4465,2.4554,2.4595,2.4582,2.4725,2.4686,2.4691,2.4696,2.4745,2.4756,2.4767,2.4629,2.4628,2.4628,0,0,2.3993,2.4036,2.4105,2.4147,2.421,2.4237,2.4254,2.4318,2.4339,2.4423,2.4428,2.4482,2.4587,2.4628,2.4663,2.4757,2.4758,2.4775,2.4814,2.4863,2.4872,2.4881,2.4914,2.4925,2.4783,2.4783,2.4783,0,2.4018,2.4114,2.414,2.4208,2.4247,2.4255,2.4325,2.4363,2.4442,2.4468,2.4453,2.4584,2.4624,2.4722,2.4745,2.4773,2.4791,2.4768,2.4869,2.4878,2.4887,2.4918,2.4931,2.4785,2.4785,2.4785,2.4785,0,2.4142,2.4208,2.4256,2.4333,2.4377,2.4445,2.448,2.4522,2.4532,2.456,2.4644,2.4692,2.476,2.4785,2.4796,2.4884,2.4874,2.4863,2.4836,2.49,2.493,2.4942,2.4788,2.4787,2.4787,2.4786,0,0,2.4232,2.4321,2.4339,2.4373,2.4442,2.4493,2.456,2.4628,2.4662,2.4715,2.4772,2.4859,2.485,2.4889,2.4904,2.4947,2.5017,2.4931,2.4933,2.4945,2.5115,2.5123,2.5137,2.5017,2.5019,2.5021,2.511,0,2.4321,2.4442,2.4467,2.4572,2.4632,2.4639,2.4697,2.4745,2.4773,2.4826,2.4856,2.4918,2.4901,2.4924,2.4966,2.4999,2.5051,2.4993,2.5068,2.5071,2.5054,2.5153,2.5161,2.5243,2.5122,2.5124,2.5126,0,2.4441,2.4497,2.4608,2.4668,2.4694,2.4747,2.481,2.4862,2.4915,2.4932,2.4975,2.4985,2.5053,2.5021,2.5115,2.5074,2.5106,2.5127,2.513,2.5139,2.5103,2.5163,2.527,2.5282,2.5145,2.5143,2.5142,0,2.4495,2.4599,2.4679,2.4707,2.4779,2.4816,2.4847,2.4898,2.4936,2.4991,2.5016,2.5077,2.511,2.5157,2.5182,2.5157,2.5273,2.5244,2.5288,2.5287,2.5313,2.5311,2.5426,2.5333,2.5333,2.5333,2.5332,0,2.4592,2.4659,2.4704,2.4753,2.4828,2.4854,2.4927,2.4957,2.5003,2.5056,2.5065,2.5115,2.5146,2.5199,2.5219,2.5293,2.5308,2.5322,2.5327,2.5322,2.532,2.5343,2.5338,2.5336,2.5335,2.5335,2.5334,0,2.4665,2.4698,2.4785,2.4846,2.4862,2.4915,2.4966,2.5013,2.5039,2.5107,2.5124,2.5165,2.5229,2.5259,2.5337,2.535,2.5434,2.5434,2.5416,2.5418,2.546,2.5456,2.5594,2.5613,2.5508,2.5509,2.551,0,2.4725,2.4777,2.4843,2.488,2.4912,2.4972,2.5011,2.5038,2.5078,2.5142,2.518,2.5244,2.5297,2.5397,2.5433,2.5493,2.5495,2.5539,2.5504,2.5496,2.5495,2.5492,2.5496,2.5546,2.5547,2.5548,2.5548,0,2.4827,2.484,2.4897,2.496,2.5006,2.5056,2.5105,2.5135,2.5169,2.5213,2.5279,2.5319,2.5399,2.5462,2.5523,2.5553,2.5556,2.5559,2.5572,2.5568,2.5555,2.5562,2.5434,2.5556,2.5555,2.5555,2.5554,2.5554,2.4895,2.4941,2.4995,2.5057,2.5097,2.5142,2.5189,2.5221,2.5276,2.5344,2.5356,2.5425,2.5474,2.5558,2.559,2.5643,2.5632,2.5652,2.5657,2.5661,2.5663,2.5546,2.5654,2.5654,2.5654,2.5654,2.5654,0,2.4997,2.5032,2.5089,2.5157,2.5206,2.5205,2.5258,2.5299,2.536,2.5406,2.5458,2.5532,2.5592,2.5632,2.5693,2.5728,2.573,2.5743,2.5741,2.5747,2.5669,2.5652,2.574,2.574,2.574,2.574,2.574,2.5739,2.5056,2.5134,2.5153,2.5249,2.5283,2.5351,2.5382,2.5423,2.546,2.5543,2.5593,2.5619,2.5663,2.5726,2.5781,2.5791,2.5813,2.5826,2.5835,2.5762,2.5753,2.5744,2.5728,2.583,2.583,2.5908,2.5909,2.591]}]]